Temp
15 13 13 12 12 13 13 12 12 12 11 11 10 10 9 9 9 9 9 9 9 9 9 9 9 10 9 9 10 8 7 6
14 13 12 12 12 12 12 12 11 12 10 10 9 9 8 8 8 8 8 8 8 9 8 9 9 9 9 8 8 7 6 5
12 12 11 12 11 11 11 12 10 11 11 10 10 9 7 8 7 7 7 8 8 8 8 8 8 8 8 7 8 6 5 5
12 12 11 11 10 10 10 11 10 10 10 10 8 7 6 6 6 6 7 7 7 7 7 7 7 7 8 7 7 7 5 4
12 12 11 11 10 10 10 10 10 10 10 10 8 6 5 6 6 6 6 6 6 6 6 6 6 6 6 6 6 6 6 4
12 12 11 11 10 9 10 10 10 10 10 10 8 7 8 7 6 5 5 5 5 5 5 5 5 5 5 5 5 5 5 4
13 12 11 10 9 9 9 9 9 9 9 9 9 8 7 5 5 5 4 4 4 4 4 4 4 4 4 4 4 4 4 3
12 10 9 8 8 8 8 9 8 9 9 9 9 9 8 7 5 5 4 4 3 3 3 3 3 3 3 3 3 3 2 2
11 10 9 9 9 8 9 8 8 9 9 9 9 9 8 7 6 5 5 4 4 3 3 3 3 2 2 2 2 1 1 1
9 9 9 10 8 7 7 8 9 9 9 8 8 8 7 7 6 5 5 4 3 3 3 3 2 2 2 2 1 1 0 -0
9 10 10 9 7 8 8 9 10 9 9 9 8 8 7 7 6 5 4 3 3 2 2 2 2 2 1 1 1 0 0 -1
10 10 9 7 7 6 7 7 8 8 8 8 8 7 6 6 5 4 3 3 2 2 2 2 1 1 1 1 0 -0 -0 -1
9 9 8 7 7 6 6 7 8 8 8 8 7 6 5 5 5 4 3 2 2 2 1 1 1 0 0 0 -0 -1 -1 -2
9 8 7 7 7 6 6 7 6 7 7 7 6 5 5 5 4 3 2 2 1 1 1 0 -0 -0 -1 -1 -1 -1 -2 -2
9 8 7 7 7 6 5 5 6 6 5 5 5 4 4 4 3 2 2 1 1 0 -0 -0 -1 -1 -1 -1 -1 -2 -3 -3
10 10 9 7 7 6 5 5 5 5 4 4 3 3 4 3 2 2 1 0 0 -1 -1 -1 -2 -2 -2 -2 -2 -3 -3 -4
11 12 11 8 7 6 5 4 4 4 3 2 2 2 2 2 1 1 1 -0 -1 -2 -2 -2 -3 -3 -3 -2 -3 -3 -4 -5
10 10 12 12 8 7 5 4 3 3 2 1 1 1 1 0 -0 -1 -3 -2 -2 -3 -3 -3 -3 -3 -3 -3 -4 -4 -4 -5
9 7 10 12 10 8 6 4 3 2 1 0 0 -0 -1 -2 -1 -2 -3 -3 -4 -3 -3 -4 -4 -4 -4 -4 -4 -4 -5 -5
Height
722 725 734 741 745 749 751 755 758 765 771 774 780 785 788 789 790 792 794 796 799 801 802 803 806 807 807 808 808 810 813 815
724 727 730 737 741 745 747 749 754 757 763 770 775 779 786 789 790 792 793 796 797 800 802 804 805 805 806 808 808 811 815 817
720 722 725 730 733 738 742 747 752 754 759 765 769 774 782 787 791 792 794 796 798 799 802 803 804 805 806 808 810 812 814 815
714 718 720 726 729 733 739 742 749 755 755 762 770 776 780 784 788 791 793 796 798 800 801 803 804 805 807 809 810 811 812 814
702 710 713 716 723 732 737 740 745 750 754 757 763 768 774 779 785 790 793 795 799 800 802 803 805 806 808 809 809 810 810 812
691 696 701 708 718 726 734 738 742 746 749 754 759 765 771 776 783 787 792 795 798 800 802 804 806 808 809 809 809 809 811 812
685 693 706 713 720 727 735 741 744 748 750 752 759 763 769 774 780 785 790 794 797 800 803 805 807 808 810 810 809 810 812 813
690 695 703 711 716 725 733 738 742 747 748 751 758 762 768 771 776 781 786 791 796 800 803 805 807 809 810 811 812 813 814 814
684 691 696 704 716 722 727 730 741 743 745 750 757 762 767 770 775 780 785 789 793 798 802 805 808 810 811 813 814 815 816 816
694 701 704 702 706 718 722 725 738 741 745 748 754 761 768 767 771 780 785 789 793 797 802 804 808 810 812 814 815 816 817 818
697 699 703 708 705 709 719 726 730 739 743 745 751 760 767 768 771 776 785 790 792 796 800 804 807 811 813 815 817 818 818 819
700 701 703 704 711 708 713 724 729 738 740 744 748 759 767 769 769 777 783 789 792 795 800 804 808 811 813 815 817 818 819 820
703 702 702 706 711 712 713 722 727 734 738 740 747 759 766 769 769 776 783 788 792 796 799 804 808 811 813 814 816 819 820 822
704 703 699 698 706 713 716 720 726 733 737 739 747 758 764 765 770 777 783 790 794 797 800 803 807 810 812 814 816 818 821 824
692 695 698 698 700 707 713 712 723 730 736 740 745 756 758 763 771 779 783 791 795 799 802 804 807 809 810 813 816 819 822 826
685 684 690 694 700 704 711 717 722 726 734 739 747 753 756 763 773 776 783 791 795 798 801 805 807 810 810 813 817 820 824 828
679 680 684 689 695 698 705 709 717 726 732 741 746 752 757 763 773 776 780 788 793 797 797 802 807 811 811 815 818 822 826 829
677 673 667 671 683 688 695 702 711 721 729 737 743 748 755 762 769 777 781 783 788 795 796 800 806 812 811 818 821 824 828 830
672 668 660 663 673 682 691 699 708 717 725 733 742 747 755 762 768 775 780 783 787 791 797 802 807 811 813 820 824 826 829 831
Wind_Speed
24 28 29 29 31 35 34 33 34 33 30 28 23 18 15 14 15 14 14 12 11 11 10 9 8 9 10 10 12 19 24 27
15 23 29 31 34 36 38 40 39 39 37 33 26 23 18 16 14 14 14 13 12 11 10 9 8 8 10 10 15 24 27 29
13 24 30 35 37 38 40 41 40 39 36 31 31 28 19 17 14 14 13 12 11 11 10 9 8 9 10 11 15 22 17 16
16 20 30 30 34 37 39 41 40 36 34 30 27 21 22 18 16 15 14 12 12 11 11 9 9 8 9 9 11 14 11 6
18 20 25 34 34 34 37 40 40 37 35 35 36 22 20 21 21 17 15 13 13 12 11 9 9 8 9 9 8 11 13 14
22 23 33 35 33 34 35 40 40 40 38 37 35 29 24 25 22 20 17 15 13 12 11 11 11 10 10 9 10 10 12 11
19 21 23 25 27 30 29 30 31 36 37 36 33 30 28 29 26 23 20 17 15 13 13 12 12 12 11 11 11 10 10 11
14 16 16 22 28 26 25 28 28 36 36 34 33 31 31 32 30 27 25 21 18 16 15 14 14 13 12 12 13 13 12 14
17 18 18 28 26 26 31 31 31 37 36 35 35 31 32 30 29 27 25 23 20 17 16 15 15 15 14 13 14 15 15 16
9 11 19 28 28 29 33 32 32 33 33 35 35 33 33 33 29 25 23 20 20 19 17 17 17 17 15 13 15 16 15 17
10 13 18 22 29 32 30 33 39 36 35 36 34 34 33 32 29 28 24 23 22 21 19 19 19 18 16 14 15 16 15 15
7 9 15 15 21 27 33 32 34 34 34 33 32 33 32 31 31 29 26 23 22 21 21 21 20 20 18 16 16 15 16 16
3 6 11 15 16 19 29 31 36 36 35 34 33 32 31 32 31 29 26 24 22 22 22 22 21 20 18 16 17 15 16 15
7 5 9 16 20 19 24 29 30 34 35 33 33 34 33 31 31 28 25 24 24 22 22 22 21 20 18 16 15 16 15 15
6 10 10 15 22 24 24 29 33 35 35 36 35 34 34 33 31 28 27 25 23 21 19 19 20 19 17 17 18 20 21 20
9 9 8 8 16 21 23 24 31 34 34 33 35 36 35 33 32 30 27 25 22 21 20 18 18 19 21 23 24 26 26 24
13 16 10 13 22 24 25 28 30 32 32 31 35 35 35 35 32 31 30 27 24 22 22 21 20 21 25 26 26 25 23 20
7 14 18 16 24 31 33 33 33 34 33 34 37 38 37 36 34 32 28 27 26 23 23 24 23 23 25 24 24 22 20 18
6 7 5 14 24 27 28 33 35 33 31 32 33 35 33 32 33 30 30 28 25 24 24 24 26 25 24 22 21 20 18 14
Wind_Direction
196 181 184 184 183 180 176 168 164 164 164 162 158 157 153 154 158 156 157 155 154 155 140 129 130 137 126 116 110 127 126 121
177 169 172 176 179 178 176 171 170 169 167 160 157 154 153 152 156 156 155 153 151 154 149 140 134 135 135 120 117 133 131 126
171 171 171 178 176 176 173 173 172 173 173 172 168 163 156 156 154 154 157 156 156 158 157 143 131 134 137 139 144 141 137 153
177 180 180 176 177 176 174 173 175 178 175 171 161 154 147 145 153 153 155 163 163 161 156 150 139 136 140 155 170 162 151 146
181 181 181 182 182 174 176 176 176 181 180 173 167 159 152 163 162 158 154 158 160 157 154 147 142 139 140 147 156 176 169 148
188 188 186 183 172 172 177 180 179 182 181 180 174 166 169 161 159 157 156 154 156 153 153 149 145 144 137 135 130 141 166 177
195 185 172 167 163 170 177 180 178 183 183 179 181 173 166 160 161 159 160 159 156 157 157 153 146 141 137 129 119 118 124 139
178 167 167 160 161 168 173 176 181 185 183 182 188 180 177 173 168 166 164 162 161 160 161 157 153 147 139 131 125 120 122 121
175 167 162 156 163 171 176 177 185 187 186 190 192 185 186 179 176 174 172 168 163 161 163 160 155 152 145 142 138 125 118 112
147 155 162 163 163 177 179 175 187 191 193 193 190 189 192 182 175 177 171 168 164 163 165 161 158 157 154 150 143 139 132 125
158 168 174 184 169 172 176 178 182 188 187 186 187 192 195 184 175 172 173 170 168 166 164 163 161 163 160 156 145 141 142 137
187 182 170 180 195 173 170 175 179 185 185 185 186 190 189 183 175 173 172 172 170 168 167 165 164 163 162 158 150 146 140 135
165 167 161 165 176 171 168 177 184 186 184 182 179 185 186 179 173 173 174 174 172 171 169 169 168 166 165 164 155 154 151 145
311 240 187 177 174 179 178 182 185 187 184 179 179 181 180 175 172 172 174 176 174 174 174 173 170 171 169 168 162 156 153 146
216 271 206 197 179 180 193 181 191 185 184 179 175 179 174 170 171 173 172 176 175 176 178 179 176 172 166 163 157 148 139 132
220 227 218 201 193 185 186 183 185 183 179 177 177 175 171 169 172 171 173 177 180 178 174 173 170 169 160 153 146 141 137 131
222 228 194 186 190 187 185 179 177 179 173 173 173 173 171 171 174 174 173 175 176 179 171 170 164 167 156 155 151 148 147 143
249 254 229 198 196 192 187 178 171 172 170 171 173 173 170 171 173 174 174 175 175 180 171 171 167 165 156 160 157 156 154 150
281 323 304 215 201 187 175 168 170 170 166 165 169 166 164 167 172 181 184 183 180 173 174 174 170 163 158 164 164 159 156 154